This is the latest recevied weather packets stored in our database for station/object KB9HUO. If no packets are shown the sender has not sent any weather packets the latest 10 day(s).
| Time | Temp. | Humidity | Pressure | Rain* | Wind** | Luminosity | Snow |
|---|---|---|---|---|---|---|---|
| 1777752890 | 12.22° C | 50% | 1018.4 hPa | 0 mm | - | 163 W/m² | - |
| 1777752587 | 12.22° C | 48% | 1018.5 hPa | 0 mm | - | 111 W/m² | - |
| 1777752283 | 12.22° C | 49% | 1018.5 hPa | 0 mm | - | 110 W/m² | - |
| 1777751980 | 12.22° C | 52% | 1018.5 hPa | 0 mm | - | 107 W/m² | - |
| 1777751678 | 12.78° C | 53% | 1018.5 hPa | 0 mm | - | 76 W/m² | - |
| 1777751374 | 12.78° C | 48% | 1018.5 hPa | 0 mm | - | 72 W/m² | - |
| 1777751071 | 13.33° C | 49% | 1018.5 hPa | 0 mm | - | 131 W/m² | - |
| 1777750766 | 13.33° C | 49% | 1018.4 hPa | 0 mm | - | 170 W/m² | - |
| 1777750464 | 13.33° C | 51% | 1018.7 hPa | 0 mm | - | 215 W/m² | - |
| 1777750159 | 13.33° C | 48% | 1018.7 hPa | 0 mm | - | 217 W/m² | - |
| 1777749856 | 13.33° C | 49% | 1018.7 hPa | 0 mm | - | 180 W/m² | - |
| 1777749554 | 12.78° C | 52% | 1018.7 hPa | 0 mm | - | 240 W/m² | - |
| 1777749251 | 12.22° C | 51% | 1018.8 hPa | 0 mm | - | 219 W/m² | - |
| 1777748949 | 12.22° C | 52% | 1018.9 hPa | 0 mm | - | 147 W/m² | - |
| 1777748646 | 12.22° C | 51% | 1019 hPa | 0 mm | - | 98 W/m² | - |
| 1777748341 | 12.22° C | 54% | 1018.8 hPa | 0 mm | - | 124 W/m² | - |
| 1777748037 | 12.22° C | 54% | 1018.8 hPa | 0 mm | - | 122 W/m² | - |
| 1777747735 | 12.22° C | 53% | 1018.9 hPa | 0 mm | - | 81 W/m² | - |
| 1777747430 | 12.78° C | 55% | 1018.9 hPa | 0 mm | - | 96 W/m² | - |
| 1777747127 | 12.78° C | 50% | 1018.7 hPa | 0 mm | - | 147 W/m² | - |
| 1777746823 | 13.33° C | 50% | 1019 hPa | 0 mm | - | 170 W/m² | - |
| 1777746518 | 13.33° C | 49% | 1019 hPa | 0 mm | - | 207 W/m² | - |
| 1777746214 | 13.89° C | 49% | 1018.8 hPa | 0 mm | - | 247 W/m² | - |
| 1777745911 | 13.89° C | 47% | 1018.9 hPa | 0 mm | - | 199 W/m² | - |
| 1777745610 | 13.33° C | 53% | 1019.1 hPa | 0 mm | - | 780 W/m² | - |
* Rain latest hour (hover to see other rain measurements)
** Current wind speed in m/s (hover to see current wind gust speed)